Theta_e
300 293 291 291 294 294 295 297 295 293 292 290 290 288 287 287 287 289 288 289 289 290 288 288 290 291 293 294 294 291 290 291 290 291 292 292 293 296 297 298 299 302 306 310 310 312 316 319 321 322 323 323 322 322 323 323 323 323 324 324 325 326 327 327 326 325 326 325 324 324 325 325 323 323 322 323 324 325 328 329 329 328 327 327 326 326
298 291 291 294 295 295 295 296 296 293 292 291 288 287 286 287 285 289 290 290 289 289 288 287 287 290 292 293 291 289 290 292 292 292 292 293 292 293 296 298 298 301 302 303 306 309 311 315 317 319 321 319 320 321 322 322 323 324 324 324 325 326 326 327 328 327 326 327 327 326 325 324 322 322 322 324 324 325 323 325 328 328 328 328 327 326
291 289 292 295 296 296 296 295 295 293 292 290 289 288 285 286 287 290 289 289 289 289 287 285 286 290 291 292 291 288 291 293 294 295 295 295 293 292 293 295 298 297 299 300 304 306 309 312 316 318 319 321 322 322 321 323 323 323 324 324 325 325 326 327 327 327 326 327 326 326 322 325 317 316 320 322 321 322 323 323 324 325 327 328 328 327
286 290 294 295 296 295 294 294 293 292 290 290 288 285 283 287 287 285 287 288 290 288 286 284 285 288 290 291 290 289 290 290 292 294 295 294 294 294 294 295 296 297 298 298 300 304 307 310 314 316 318 320 321 321 321 322 322 323 323 324 325 325 325 327 327 325 327 326 324 320 319 321 323 319 313 318 315 319 320 321 320 322 323 324 326 327
289 291 295 296 295 295 292 293 292 290 288 289 289 286 285 286 287 287 287 288 288 288 286 285 285 285 288 289 290 289 289 290 292 291 291 293 294 295 295 294 294 296 297 298 299 301 303 307 311 314 317 318 319 320 321 322 322 324 323 323 324 325 325 326 325 324 324 320 317 315 314 315 316 314 314 315 318 319 319 320 320 323 322 321 322 323
289 293 295 294 293 294 293 291 291 290 287 288 290 289 289 288 287 287 287 288 286 285 287 288 280 282 282 284 288 292 289 288 290 291 292 293 293 293 293 294 295 295 295 297 298 300 301 305 309 312 314 316 319 320 322 323 323 323 323 323 323 324 324 325 325 324 323 322 322 319 321 321 321 322 319 320 322 320 320 322 320 318 319 321 322 321
290 292 294 292 292 292 292 292 292 292 288 286 288 291 290 289 288 288 287 288 282 281 284 287 284 278 282 284 287 289 288 290 291 290 293 293 293 292 293 295 295 295 294 294 295 296 297 300 305 310 313 315 317 320 321 322 322 323 324 323 323 324 324 324 323 323 321 322 322 322 323 324 323 323 322 316 314 319 318 317 318 320 317 319 322 322
290 289 291 292 291 290 290 290 293 292 288 285 290 290 290 290 289 288 288 288 285 285 286 286 284 279 282 288 285 283 284 287 289 290 290 291 293 294 294 295 295 296 295 295 295 296 298 299 303 308 312 315 317 318 318 320 320 321 322 322 322 322 321 322 322 321 322 323 322 321 321 320 321 321 320 313 312 309 311 315 316 314 316 318 320 322
292 287 290 289 290 289 289 292 294 293 289 287 293 293 292 292 291 290 289 286 284 285 283 283 284 281 278 282 283 283 285 285 288 289 290 292 292 294 295 296 296 296 296 295 295 295 296 297 300 305 309 314 315 316 317 318 319 320 321 320 320 321 320 319 319 320 321 321 322 322 321 319 317 317 314 309 306 312 307 312 308 311 314 316 318 320
289 291 292 292 290 288 291 292 294 294 288 290 291 294 291 290 288 289 286 286 284 282 281 283 282 279 278 279 282 281 283 284 286 289 291 291 292 293 295 295 296 295 293 292 294 295 296 297 299 302 306 309 314 315 314 315 315 317 318 317 317 319 319 318 318 319 320 321 319 320 319 319 316 310 307 307 308 309 308 313 310 309 311 311 312 314
287 291 294 292 290 291 291 293 293 294 293 294 293 292 290 287 286 284 284 283 283 277 282 281 280 281 278 281 285 285 285 287 289 289 289 290 290 291 292 293 295 295 293 292 292 292 294 295 296 297 304 307 306 307 308 311 313 314 315 316 317 318 318 317 318 318 319 319 319 321 319 319 316 312 312 309 304 304 305 311 307 305 307 306 308 309
286 288 289 289 292 291 292 289 293 294 294 294 290 288 288 287 285 285 282 283 278 278 279 279 279 279 277 278 281 285 284 283 289 290 292 291 289 290 291 291 292 291 292 292 291 292 293 294 295 295 300 303 304 302 305 308 309 311 313 315 316 315 316 316 317 317 318 319 319 319 319 318 317 314 313 313 312 308 311 309 309 305 304 303 304 306
285 285 287 290 291 291 289 288 288 292 292 291 289 288 284 279 280 278 280 277 277 277 280 277 278 279 280 283 284 284 285 286 284 288 291 291 291 290 289 289 290 290 290 292 293 294 294 295 296 296 298 299 300 304 304 306 308 310 311 313 315 315 313 315 315 316 317 317 317 318 317 317 316 315 314 314 312 308 311 307 306 304 307 301 304 302
282 282 286 288 290 291 291 286 284 285 289 289 287 284 282 277 277 275 274 270 272 277 278 278 280 278 279 281 289 290 293 293 289 287 287 288 290 292 292 290 291 291 291 292 294 294 295 296 296 297 297 299 301 301 303 303 305 307 309 310 313 315 311 311 312 314 314 315 316 316 316 316 315 314 313 312 312 308 309 308 308 308 308 306 306 303
277 278 284 287 285 290 290 290 289 286 288 289 291 288 284 282 276 274 274 276 277 279 277 278 277 274 277 282 284 291 291 289 285 286 286 286 287 288 289 290 290 290 291 292 294 295 296 296 295 296 297 297 298 298 299 300 302 304 307 308 310 311 307 309 311 313 314 314 313 314 315 315 314 314 311 311 311 308 306 305 307 306 304 306 304 304
281 280 283 288 287 290 290 291 292 290 289 288 289 290 285 284 284 278 277 276 274 273 274 275 277 278 282 282 285 285 286 288 288 287 286 289 289 290 291 293 293 292 292 290 292 294 294 293 293 293 294 296 297 297 297 298 299 301 305 306 308 311 307 308 309 311 313 313 312 311 312 311 310 308 309 306 303 306 308 306 308 305 304 304 303 302
281 280 285 286 288 288 290 290 291 292 283 286 286 285 286 289 288 282 279 279 277 274 274 274 277 281 280 286 290 283 283 289 288 288 287 289 289 289 292 293 292 292 290 290 291 292 293 291 292 293 294 294 295 295 297 298 298 300 301 303 305 305 304 307 308 310 311 311 310 309 309 307 307 308 308 308 306 306 305 306 305 305 302 303 303 302
281 279 285 285 286 288 287 289 289 288 289 287 284 287 289 290 289 284 278 274 275 274 275 272 277 277 277 280 283 281 286 288 288 289 287 286 285 288 292 292 293 292 292 290 290 289 290 291 293 293 293 294 295 295 295 296 295 297 299 302 304 303 305 304 306 307 308 308 309 307 307 307 308 309 308 307 306 305 305 303 302 302 302 301 300 300
285 279 284 285 285 288 287 290 289 289 289 289 287 292 288 281 281 281 279 275 272 272 270 271 274 275 276 280 282 285 283 288 290 290 287 289 289 291 292 292 292 290 289 291 292 291 291 292 292 292 293 294 294 295 295 295 295 295 296 298 303 304 305 305 306 306 306 308 309 308 307 307 307 307 308 307 306 305 306 303 303 302 300 297 297 299
285 276 279 285 285 287 286 287 284 285 288 289 289 287 288 285 283 279 281 276 277 275 270 273 271 279 279 279 281 288 289 289 290 288 288 289 290 292 292 292 292 291 291 291 292 292 291 291 290 291 293 294 295 295 295 296 296 297 298 299 299 300 301 302 303 304 306 305 307 305 305 306 307 306 306 305 305 304 303 302 302 301 301 299 297 297
283 281 275 281 285 285 282 284 284 286 283 284 285 284 286 286 286 286 284 282 280 272 269 270 271 274 278 282 284 289 290 291 289 289 289 289 290 291 292 292 291 291 291 292 293 293 292 292 291 291 291 291 291 293 294 297 298 298 298 299 300 303 303 303 303 305 305 305 306 306 306 307 307 305 303 301 301 301 299 300 301 301 298 295 294 292
282 281 278 280 282 281 281 284 286 288 290 287 286 285 286 284 281 281 280 280 275 277 273 268 275 276 282 282 287 288 289 287 286 287 289 289 289 289 290 291 291 291 291 291 292 291 291 291 292 291 290 290 292 293 295 298 298 296 298 300 301 303 304 304 304 305 305 306 307 306 306 306 305 304 303 300 298 298 296 296 297 295 294 294 288 289
284 280 280 276 280 284 284 286 285 285 285 286 286 286 288 286 283 281 278 277 277 278 274 273 272 279 284 283 284 286 286 285 284 286 288 289 289 289 289 290 291 291 291 292 291 291 291 291 291 291 291 292 293 295 295 296 300 300 299 299 300 303 302 304 304 304 305 306 305 304 303 301 299 300 298 296 293 293 292 291 291 292 293 290 288 286
290 279 279 274 277 280 283 283 284 284 288 287 286 284 285 285 286 283 281 280 282 278 276 275 274 281 287 283 283 282 281 282 284 284 287 288 288 288 288 288 290 291 290 291 290 290 290 290 290 290 291 291 291 292 296 298 298 299 299 299 300 301 301 301 303 304 305 304 301 299 298 298 296 297 296 294 292 291 290 290 290 289 290 288 288 288
282 280 282 272 272 277 279 283 284 284 284 281 282 284 284 285 286 284 283 283 281 280 280 277 277 277 286 280 281 279 280 282 285 284 284 287 289 288 288 287 288 290 291 291 291 290 289 289 289 290 290 290 290 291 293 297 297 297 297 297 299 299 299 299 300 301 300 299 297 296 296 295 295 296 295 293 291 291 289 289 288 288 289 288 288 288
288 281 283 276 275 273 271 274 278 281 282 282 281 283 284 287 284 284 282 282 280 282 281 277 281 280 282 283 284 284 283 284 285 285 284 285 287 288 290 289 289 290 292 291 290 289 291 291 289 288 289 289 288 290 292 293 294 294 295 296 296 297 296 296 297 298 297 297 296 295 294 293 293 293 292 291 290 290 288 287 288 288 287 289 288 287
281 281 284 284 282 280 282 282 283 285 283 283 281 284 284 285 285 286 284 282 281 281 279 284 285 283 283 285 284 286 284 285 287 287 288 288 287 288 289 290 290 291 292 292 293 292 290 289 291 291 290 291 289 288 289 291 292 293 294 293 293 295 295 294 296 296 296 295 295 294 293 292 292 291 290 289 288 287 287 287 287 288 287 286 287 287
280 283 284 285 284 283 281 282 285 289 285 286 284 284 284 284 284 284 282 282 282 279 280 285 284 284 285 284 285 285 287 288 288 286 287 288 288 289 290 289 292 289 290 290 290 291 292 292 290 290 290 289 290 288 288 287 289 292 293 293 292 293 293 294 294 294 294 294 293 292 291 290 289 288 288 287 286 287 286 286 286 286 285 286 287 287
284 284 283 283 282 282 281 284 286 287 287 286 286 287 285 285 284 283 284 286 283 283 282 284 283 285 285 286 289 289 288 291 292 290 288 288 287 287 289 290 290 290 290 291 293 293 292 292 291 290 289 290 288 289 288 288 288 288 290 291 291 291 292 292 293 292 292 292 291 289 288 286 286 286 286 286 287 286 286 286 286 285 285 285 286 286
287 279 280 282 282 283 281 283 285 286 285 285 286 287 288 286 285 286 286 287 286 285 287 285 285 286 286 287 289 291 291 291 288 286 285 286 288 289 289 290 291 292 292 293 294 294 293 293 292 291 291 289 290 289 289 289 289 289 290 289 289 290 289 290 291 290 289 289 288 287 286 286 286 286 286 287 287 286 286 286 285 285 285 285 285 284
287 279 285 281 279 279 281 282 282 283 284 284 284 286 287 287 287 287 287 287 286 286 287 286 285 286 287 287 289 289 288 288 287 288 290 291 290 288 290 291 293 294 294 294 294 294 293 292 291 290 290 291 291 291 291 290 290 289 289 289 289 289 288 289 289 289 289 288 287 286 286 286 286 286 286 286 286 285 285 285 285 285 285 284 284 284
286 276 280 279 278 275 280 281 281 280 280 281 283 284 284 285 283 285 284 286 285 285 286 285 284 285 287 288 289 289 289 289 289 291 291 291 289 287 289 291 293 295 295 295 295 293 292 291 291 291 292 292 292 291 291 290 290 289 290 289 289 288 287 288 289 289 288 287 286 286 286 286 286 286 285 285 285 285 284 284 284 284 284 284 283 283
284 280 278 276 278 274 274 277 278 279 280 279 281 284 286 286 286 287 288 288 288 289 285 283 285 286 288 287 288 288 288 289 289 290 291 291 290 289 290 291 292 294 295 296 295 293 293 293 293 293 293 292 292 292 291 291 290 290 290 289 289 287 287 288 288 288 287 286 286 286 286 286 286 285 285 285 284 284 284 284 284 283 283 283 283 282
284 285 280 280 279 271 272 276 278 279 274 279 288 288 288 285 285 284 285 287 288 288 288 290 289 287 287 287 288 288 288 290 292 293 292 292 291 288 288 290 292 293 293 294 294 294 294 294 294 293 293 294 293 291 290 290 290 290 289 288 287 287 287 287 287 287 286 286 286 286 285 285 285 285 284 284 283 283 283 283 283 283 283 282 282 282
284 283 278 274 275 272 272 277 277 274 277 286 285 290 290 289 288 287 288 288 289 289 289 289 289 288 287 289 290 290 290 291 289 289 290 287 288 289 290 290 291 292 293 292 293 294 294 295 294 293 292 292 292 291 289 289 288 287 287 287 287 287 287 286 286 286 286 285 285 285 285 285 285 284 283 283 283 283 282 282 282 282 282 282 282 282
283 284 276 273 272 271 271 276 272 277 282 282 282 282 286 288 286 287 285 287 286 287 288 288 290 291 291 290 289 288 289 288 286 286 288 289 288 291 289 291 292 292 292 293 294 295 295 295 295 295 295 294 291 290 290 289 288 288 287 287 287 286 286 286 286 285 285 285 284 284 284 284 284 283 283 282 282 282 282 282 282 281 281 280 280 280
287 284 283 277 273 275 272 276 279 280 281 285 284 283 286 283 283 285 282 286 290 290 289 289 290 290 291 291 290 289 286 286 288 293 292 290 289 288 292 293 294 294 294 295 295 295 296 296 296 294 291 290 291 290 289 288 288 288 287 286 286 286 286 286 285 285 285 285 284 284 284 284 284 283 282 282 282 282 282 281 280 280 280 280 280 280
287 286 282 282 274 272 273 269 269 273 275 282 284 282 288 288 289 289 287 286 290 290 291 290 290 290 289 289 289 288 287 287 287 290 294 290 290 292 291 292 293 293 294 294 292 291 291 290 289 290 292 289 289 289 288 287 288 287 287 286 286 286 285 285 285 285 285 285 284 284 284 284 283 283 282 282 282 282 281 281 280 280 280 281 280 279
281 281 283 285 276 272 270 273 272 273 279 282 284 286 287 288 288 285 282 282 285 286 288 290 289 290 290 290 289 286 286 285 287 291 294 289 290 291 293 292 292 292 290 289 291 291 289 290 291 289 289 289 289 288 288 287 287 287 287 286 286 286 285 285 285 285 285 284 284 283 283 283 283 283 282 282 282 281 280 280 280 279 279 280 280 279
280 276 278 275 271 274 276 272 276 273 279 282 283 283 286 287 290 287 275 278 285 288 290 290 290 290 289 290 286 286 287 286 288 293 290 291 292 291 290 292 291 289 288 286 286 287 288 288 288 288 289 289 290 288 287 287 287 287 287 286 285 285 285 286 285 285 284 283 283 282 282 282 282 282 282 281 280 280 280 278 277 278 278 278 279 278
276 276 277 281 279 276 281 275 269 277 280 278 281 284 285 289 290 280 277 281 286 285 285 288 289 291 289 286 287 286 289 293 294 287 282 283 288 288 284 281 283 284 285 284 285 286 287 288 290 290 290 289 288 287 287 287 287 287 286 286 285 285 286 285 284 283 283 282 281 281 280 280 281 280 280 280 279 279 277 278 278 278 278 277 277 278
270 270 270 272 273 277 276 274 277 278 282 285 281 286 285 288 276 281 286 286 284 284 282 286 288 289 287 288 288 290 293 292 290 282 286 285 285 284 283 282 282 281 281 282 283 284 286 286 286 286 285 286 286 287 287 287 287 287 286 285 285 286 284 283 282 282 281 280 280 279 279 278 278 278 278 277 277 277 276 276 277 278 277 277 278 278
280 279 278 279 273 269 269 274 269 275 278 287 286 285 286 284 287 286 282 286 282 282 284 283 287 288 286 287 288 290 290 290 287 287 285 283 283 283 283 282 282 282 283 283 284 283 285 286 286 286 285 285 286 286 287 287 286 285 285 285 285 282 281 281 281 280 280 279 278 277 277 277 276 276 276 276 277 277 276 276 276 276 277 277 277 277
283 279 273 277 278 277 273 274 278 283 286 289 290 287 288 289 285 284 288 288 284 281 282 284 285 286 285 288 288 287 288 288 287 284 283 283 282 282 282 282 282 282 282 281 282 283 283 284 283 283 281 283 284 285 286 287 286 284 284 284 281 280 280 280 279 279 278 277 276 276 275 275 275 275 276 276 277 277 276 276 276 276 276 277 277 277
284 284 281 282 280 280 280 284 284 284 288 290 289 288 293 293 284 284 289 291 289 286 281 284 286 286 285 286 286 286 286 285 288 285 285 286 283 281 282 281 280 280 281 281 281 281 282 284 283 282 281 281 283 284 285 285 285 283 283 281 279 279 279 278 277 277 276 276 275 275 274 274 274 274 275 275 276 277 277 276 276 275 275 276 276 276
282 285 279 286 281 284 285 284 280 280 284 288 285 283 287 291 284 284 286 288 286 287 285 289 288 288 286 284 286 283 285 287 285 283 282 282 281 280 280 280 279 279 279 278 279 280 280 281 281 281 280 279 279 281 281 282 284 283 282 278 278 278 278 277 276 276 275 275 275 274 274 274 274 274 274 274 275 277 277 277 276 276 274 275 275 275
282 281 283 283 280 283 282 283 284 286 285 288 290 285 283 282 286 285 284 284 288 286 284 284 285 285 285 282 285 288 287 285 284 284 282 281 280 280 280 280 278 278 278 278 278 278 280 280 280 280 280 279 277 279 279 280 280 281 278 277 278 277 277 277 276 275 275 275 274 273 274 274 274 273 273 273 273 274 274 275 276 275 274 274 273 273
282 280 284 279 281 284 284 283 285 284 285 286 287 287 287 287 285 284 289 289 284 281 282 282 283 284 283 285 285 285 286 283 283 284 283 282 282 280 280 279 278 277 277 277 276 276 277 279 280 279 279 279 278 277 277 277 276 276 277 276 277 276 276 276 276 275 274 274 273 273 274 274 273 273 273 273 274 274 273 273 274 274 274 273 273 272
283 286 282 281 282 282 281 280 282 285 287 286 284 284 288 290 290 287 285 284 283 285 283 281 282 284 283 287 285 284 284 284 284 285 284 282 281 280 280 279 278 277 276 276 275 275 278 277 277 277 278 277 275 275 274 273 273 274 275 275 275 275 275 275 274 273 273 272 272 272 273 273 273 273 273 272 272 270 271 272 272 272 270 268 268 270
284 283 281 282 280 282 284 283 283 282 281 285 286 288 289 288 285 285 284 283 284 286 286 286 284 280 280 281 283 284 286 286 283 282 283 282 281 279 279 278 276 275 274 274 274 274 274 275 275 276 275 274 273 273 273 271 272 272 273 273 274 274 274 273 273 272 272 272 272 272 272 271 271 271 271 271 270 270 269 272 273 272 271 269 272 274
286 282 283 284 283 284 286 286 288 290 289 286 287 288 287 286 284 285 286 287 286 285 284 284 285 283 282 281 280 282 283 283 282 281 280 279 278 278 278 278 277 276 275 274 274 272 273 273 273 274 273 273 272 272 271 270 270 270 271 272 273 274 274 273 273 272 271 271 271 271 271 271 270 269 269 270 270 271 271 271 273 277 277 276 276 277
Wind_Speed
2 8 10 13 11 8 6 6 7 7 8 3 1 1 6 5 6 4 4 3 2 1 8 8 9 12 15 13 9 4 3 5 5 7 9 8 8 9 9 10 12 12 16 11 8 7 10 12 11 10 9 9 9 10 10 11 11 12 12 11 13 11 10 9 9 8 9 9 7 6 9 9 6 6 5 6 5 6 6 6 7 7 6 6 5 5
3 7 11 6 4 9 8 6 5 5 1 1 1 2 6 4 7 5 1 2 4 4 4 5 6 12 13 12 6 1 4 8 10 12 11 11 9 9 10 12 13 15 7 2 4 8 8 9 9 9 9 9 11 11 11 13 14 13 13 13 12 9 10 11 11 10 9 9 10 9 8 5 5 5 7 7 5 6 5 5 6 6 6 7 6 5
8 12 4 3 5 6 7 6 7 7 6 1 2 2 4 7 4 10 5 1 1 2 9 1 5 12 13 14 6 5 7 6 9 12 15 13 10 9 10 12 12 7 11 7 9 7 7 10 11 11 11 11 13 12 13 13 12 13 12 11 10 10 11 11 11 10 10 8 7 8 5 8 3 3 5 5 5 6 6 6 5 5 5 7 7 7
5 9 6 6 7 9 6 8 7 6 3 3 2 3 6 1 0 5 2 1 0 3 2 1 5 9 9 8 9 7 7 7 7 8 10 6 10 11 15 14 11 12 13 13 12 12 10 10 11 10 11 12 11 11 10 11 13 11 11 11 11 11 11 11 11 11 9 8 6 5 4 5 6 5 4 4 3 4 4 6 5 5 5 4 5 6
5 2 7 10 9 11 11 10 10 9 9 4 6 4 4 5 3 4 4 2 2 1 2 1 4 7 7 9 8 5 8 7 7 5 5 6 9 11 6 4 7 13 13 13 11 10 8 9 12 14 13 10 11 13 13 13 13 10 12 12 13 12 12 11 10 11 7 5 4 3 3 3 2 2 3 3 5 5 4 4 5 6 5 5 5 5
2 3 7 7 6 7 10 11 13 10 8 7 8 8 6 4 5 6 4 3 3 3 3 2 2 8 4 5 10 10 1 6 8 8 10 11 11 9 9 13 11 10 10 12 13 13 12 13 11 10 10 12 13 13 13 12 12 11 11 11 11 10 10 11 10 10 8 8 9 7 7 7 7 8 7 9 8 5 6 7 3 3 5 5 5 5
5 4 10 11 10 8 9 9 10 9 8 7 7 9 6 6 4 5 5 1 3 5 4 1 9 7 5 5 6 8 7 10 7 6 12 10 9 8 11 12 13 14 12 9 8 7 7 9 7 10 12 14 13 14 10 11 11 12 12 12 12 11 10 10 9 10 9 8 8 11 12 10 10 9 7 2 3 5 5 4 5 5 4 5 6 6
5 6 5 7 8 11 9 11 12 13 7 6 3 9 6 1 4 6 5 6 7 1 4 1 3 5 8 10 4 3 3 8 10 9 10 9 9 11 12 14 14 14 12 11 13 12 11 11 13 15 16 13 16 12 9 11 9 12 13 11 11 10 10 9 8 9 10 11 10 9 9 9 9 10 9 5 5 4 4 6 6 5 4 5 6 6
13 8 11 9 9 9 14 8 7 10 8 2 4 4 1 1 2 2 2 6 3 1 8 2 1 2 6 7 3 1 4 6 11 10 11 12 12 13 14 16 15 15 14 12 12 13 14 14 14 13 12 13 10 10 12 12 12 11 10 10 10 11 9 7 9 10 10 10 11 10 9 8 7 7 6 5 4 5 4 5 4 4 5 4 4 4
1 13 15 15 11 12 4 6 10 13 9 6 2 5 5 5 4 1 2 3 2 2 10 7 4 5 8 5 4 2 2 7 8 10 11 13 14 14 15 15 15 11 8 8 12 12 11 11 11 11 9 8 12 10 9 8 7 8 8 9 10 10 9 8 9 10 11 11 9 9 9 11 8 5 4 5 5 4 4 5 5 5 4 4 4 1
2 6 7 8 10 6 7 8 9 13 4 3 5 4 3 3 2 3 3 1 1 6 11 5 3 5 7 6 9 8 7 8 9 8 6 7 8 9 10 11 11 8 7 8 9 8 9 7 6 5 9 9 5 6 6 7 8 7 9 10 11 11 8 9 10 11 11 10 10 10 10 11 9 7 7 6 4 3 3 5 4 4 3 1 2 2
2 1 5 3 3 3 6 4 6 8 8 6 3 4 5 2 2 2 2 1 4 11 3 1 3 4 10 4 5 7 4 4 8 9 11 9 7 9 7 8 10 8 8 8 7 10 9 6 6 5 7 7 7 5 7 7 6 8 8 9 11 9 10 9 9 10 11 10 11 10 10 10 9 9 8 9 8 7 7 6 6 2 3 2 3 3
1 4 2 1 4 10 6 8 5 6 8 7 3 5 7 2 2 4 1 6 10 7 1 0 2 0 14 6 7 6 9 7 7 10 10 9 8 6 7 9 8 6 6 8 10 10 8 10 10 9 8 6 7 10 9 9 9 8 8 10 11 11 9 10 9 11 11 10 10 10 10 9 8 9 9 9 8 7 7 6 5 5 5 4 5 4
5 1 1 3 3 5 9 11 6 8 9 10 9 6 7 5 6 9 4 1 5 6 3 1 0 6 3 5 13 16 16 15 9 10 10 9 11 12 9 7 6 6 6 8 7 7 9 9 9 9 8 9 8 9 10 9 9 8 8 9 11 12 9 8 8 10 10 10 10 9 9 9 8 9 8 7 7 7 6 7 8 8 7 6 6 5
6 4 8 8 3 3 7 8 8 5 7 9 3 6 5 4 4 8 5 11 8 8 2 3 1 7 4 4 4 13 7 7 4 6 7 7 9 9 8 8 8 6 5 5 5 7 8 7 6 7 7 7 7 7 7 7 8 7 8 9 10 8 8 8 10 9 10 9 9 8 8 9 7 8 7 7 7 7 7 5 7 5 5 6 5 5
10 1 3 1 1 4 10 3 7 7 7 6 4 3 5 12 4 2 5 2 2 4 4 2 6 4 5 3 8 4 7 8 7 8 5 9 5 5 7 8 8 5 4 4 5 5 5 4 4 4 5 5 6 6 6 7 7 7 9 8 9 10 9 9 9 8 9 9 8 8 9 8 8 6 6 5 4 4 6 7 7 7 6 5 5 4
3 6 1 5 2 1 7 5 4 7 9 5 5 12 6 3 5 2 3 0 1 2 9 1 7 7 7 8 9 4 4 8 5 7 5 6 5 3 7 7 6 5 4 4 4 4 4 3 3 4 4 4 4 4 7 7 7 8 7 7 7 6 6 8 8 8 8 8 8 8 8 7 7 8 9 8 7 7 5 6 6 6 6 6 5 5
10 3 1 3 3 1 0 1 1 2 2 8 10 8 3 1 4 5 6 2 2 7 8 2 6 5 3 8 4 6 6 12 8 8 6 6 4 5 7 7 7 6 5 4 4 4 4 4 4 4 4 4 4 4 4 5 4 5 5 6 8 7 9 7 7 8 8 9 9 8 8 8 9 9 8 8 8 7 7 5 6 5 6 5 5 6
6 2 1 0 0 4 2 1 2 1 1 7 9 6 9 6 7 1 1 8 5 7 5 3 1 4 5 6 7 9 2 7 8 7 4 7 6 8 8 8 6 5 5 5 5 4 4 4 4 4 5 4 4 4 4 3 4 4 4 5 6 9 8 9 7 7 6 8 8 8 8 9 7 6 7 7 8 8 8 7 6 6 6 5 5 7
1 4 2 1 2 1 1 3 10 3 3 1 3 4 0 2 3 4 7 2 3 7 1 9 1 10 6 6 8 11 12 10 13 8 7 7 7 7 7 7 7 6 6 5 5 5 4 4 4 4 4 4 5 4 4 4 3 5 5 5 5 4 5 6 7 7 8 6 7 7 6 6 7 8 8 8 9 7 7 7 7 7 6 6 5 6
4 2 3 1 2 1 3 2 6 7 6 1 2 5 1 3 1 2 0 5 5 2 2 2 6 5 6 9 9 14 14 13 2 4 6 7 7 9 9 8 6 6 6 6 6 5 4 4 2 2 3 3 1 1 3 4 5 5 4 5 6 9 8 7 7 7 7 7 7 9 9 8 8 8 7 7 6 7 6 6 7 6 6 6 5 6
3 2 6 1 1 4 6 3 6 10 10 9 9 9 11 9 6 8 11 3 1 2 6 0 13 4 8 3 10 12 11 3 2 4 8 8 8 6 7 7 6 6 6 5 4 4 4 3 1 0 1 1 3 3 3 3 4 4 5 6 6 7 8 8 7 7 8 7 8 9 9 8 6 7 7 7 6 7 7 6 7 7 6 7 4 5
5 3 8 3 7 9 5 1 0 1 2 1 4 7 7 5 5 5 8 4 1 3 3 2 4 14 6 5 7 9 7 5 4 3 8 9 8 8 8 7 5 5 4 4 4 3 3 2 2 2 2 3 3 4 4 4 5 5 5 5 5 8 7 7 8 7 7 8 8 8 7 7 7 7 7 8 6 7 7 6 6 6 8 7 5 3
6 4 5 1 2 3 3 1 2 3 1 2 2 1 2 8 6 6 5 5 6 2 2 2 7 8 7 6 6 5 5 5 5 5 9 9 7 7 7 6 6 5 3 1 1 1 1 1 0 1 2 2 2 3 4 4 3 4 4 5 5 7 7 6 7 7 7 7 7 7 7 7 7 8 7 8 6 8 6 6 6 5 7 7 5 6
5 2 9 3 2 2 4 2 2 2 2 1 1 2 2 1 1 2 4 3 3 7 6 6 19 6 3 3 4 3 4 6 6 5 6 8 7 5 6 5 4 3 1 1 2 2 1 1 2 3 3 3 3 2 3 4 4 4 4 4 5 5 5 6 5 7 7 7 8 6 7 7 7 8 7 7 6 8 7 6 6 5 8 7 6 6
7 5 10 8 11 10 6 9 15 12 8 3 2 5 7 10 7 6 6 5 9 9 8 6 15 2 4 4 4 3 2 5 5 5 4 7 7 8 7 5 4 3 4 3 3 3 6 6 4 3 3 3 4 4 4 3 4 4 4 5 4 6 5 5 5 6 7 7 8 7 8 7 6 8 8 8 7 7 7 7 6 7 5 7 8 6
4 3 7 11 14 16 13 2 3 11 4 7 4 7 5 4 6 5 2 7 18 4 6 19 17 2 3 3 4 6 3 5 7 5 5 5 4 5 6 5 4 4 4 5 5 4 2 3 7 6 5 5 4 4 4 4 4 5 5 5 4 5 6 5 6 7 7 7 8 7 7 7 7 7 7 7 7 6 6 6 6 7 7 5 7 7
4 5 12 13 9 4 2 2 6 13 11 10 8 9 6 5 6 8 10 18 5 3 17 10 2 9 10 3 6 7 6 6 7 4 5 5 6 6 4 3 3 3 4 3 4 5 7 7 5 5 6 4 4 3 3 3 4 5 6 6 4 5 6 6 7 7 7 7 7 7 7 6 6 6 7 6 6 6 6 6 6 6 6 6 7 7
7 12 5 5 6 2 1 6 11 10 11 10 12 13 12 11 9 15 18 12 6 13 20 3 9 13 7 9 10 8 5 6 13 5 2 5 6 5 3 3 3 4 5 5 7 6 6 7 6 5 5 5 4 4 4 4 4 3 4 5 5 5 6 6 7 7 8 7 7 7 6 6 5 6 7 7 7 7 7 6 6 6 6 6 6 5
6 5 3 6 6 2 3 5 7 11 6 6 11 14 17 15 18 21 19 14 12 15 16 8 11 13 5 10 10 10 9 7 5 3 3 3 6 5 4 5 6 6 8 10 10 9 8 8 7 7 6 5 6 6 6 5 5 5 6 6 5 6 5 7 7 8 7 7 7 6 6 6 6 6 7 7 8 7 7 7 7 7 7 6 6 6
5 4 7 4 3 4 5 1 3 5 7 7 8 12 16 19 22 23 18 15 14 16 18 13 14 21 6 6 7 7 4 3 2 6 8 9 5 3 5 7 8 9 10 10 8 9 8 7 7 7 8 10 10 10 9 8 7 5 6 6 7 7 6 6 8 7 8 8 7 7 7 7 6 6 7 6 6 6 7 7 7 7 7 7 6 7
4 2 1 5 6 5 1 6 3 1 2 2 8 14 18 19 16 12 9 7 9 19 18 12 16 19 1 9 6 4 1 2 8 11 10 7 5 4 5 7 8 10 11 10 9 6 7 9 9 11 13 13 12 11 10 10 10 9 9 8 8 7 6 6 7 8 7 8 8 8 9 8 8 8 7 7 8 7 6 6 6 7 7 7 7 6
6 6 5 3 7 5 1 4 6 4 1 6 13 25 21 12 14 11 13 14 19 17 11 13 21 1 8 3 4 1 6 10 10 10 10 9 9 7 7 9 9 10 11 10 8 10 11 13 14 14 11 9 10 12 11 9 10 11 10 10 7 7 7 7 7 8 7 7 8 9 8 8 9 9 8 8 8 8 7 7 6 7 7 7 6 7
7 11 7 6 8 3 1 6 5 5 3 19 10 5 13 15 13 10 15 18 14 8 14 13 9 3 2 5 7 9 9 10 12 11 6 5 4 2 6 8 10 11 9 8 8 10 12 10 10 11 12 12 10 8 7 7 8 6 6 7 7 8 7 8 7 7 8 8 8 8 8 8 9 9 8 8 8 8 8 7 7 5 5 6 6 7
11 6 6 2 4 2 2 7 6 7 20 6 3 10 16 13 15 24 21 14 16 15 15 15 15 7 6 7 7 6 7 8 5 6 8 5 5 6 7 9 11 12 13 10 8 9 11 13 12 9 7 11 12 9 9 8 6 7 7 7 8 6 8 7 8 7 8 9 7 7 8 8 9 9 8 8 8 8 7 7 6 6 6 6 7 8
10 10 4 3 5 4 3 6 6 19 6 4 4 1 2 7 5 4 8 9 6 7 14 19 19 14 11 11 6 5 6 5 5 6 9 9 8 8 7 10 12 11 11 12 13 14 13 13 15 17 18 8 8 9 10 10 8 9 8 6 8 8 7 8 8 8 8 9 9 9 9 10 10 9 9 9 8 8 8 7 8 8 6 6 5 5
14 8 8 5 0 8 5 9 13 7 10 11 6 2 8 7 7 10 10 15 17 16 15 15 15 11 13 10 7 10 3 1 5 13 11 9 8 10 13 14 13 13 13 14 13 14 12 11 10 7 5 7 9 9 9 8 9 9 9 9 8 8 8 8 9 10 10 10 10 10 9 9 11 10 10 9 9 9 9 9 7 6 5 8 6 7
8 14 6 10 3 6 7 2 3 5 11 19 1 3 6 7 8 8 8 15 8 11 10 13 13 10 9 9 9 6 2 2 9 16 14 8 10 13 14 12 12 11 12 10 4 5 5 6 5 6 10 10 10 10 9 10 11 11 11 10 9 10 10 10 11 10 10 11 10 10 10 9 10 11 10 10 10 10 8 6 5 6 5 8 9 7
5 4 6 12 4 4 3 7 8 9 16 2 8 8 8 8 12 7 4 14 1 5 7 10 12 11 14 14 12 5 4 7 14 15 8 5 9 12 14 14 15 13 8 6 6 7 6 6 8 8 8 10 12 12 12 13 13 12 12 11 11 10 11 11 11 11 12 11 10 9 9 8 9 10 10 10 9 9 9 8 8 5 5 5 6 7
7 1 4 3 4 6 7 4 10 5 7 4 6 5 8 8 11 7 2 10 4 11 13 13 13 13 12 10 4 7 9 11 14 13 1 7 10 7 7 11 9 8 7 3 3 5 6 6 7 7 11 15 14 11 12 12 12 12 12 11 10 11 13 13 11 9 7 8 8 8 8 7 9 9 9 10 8 7 7 6 7 7 7 5 6 7
5 0 3 14 9 6 9 7 3 7 3 4 5 6 8 7 11 7 16 2 5 6 2 4 10 10 8 5 8 8 13 15 14 2 3 3 2 4 2 1 2 2 4 3 3 3 6 7 10 12 12 7 8 10 11 12 12 12 11 11 11 14 11 7 7 8 8 8 8 7 7 6 7 10 7 7 9 8 7 6 7 7 7 8 6 7
0 4 2 5 5 10 8 6 10 6 7 8 1 8 7 6 3 15 8 4 5 5 3 8 7 8 6 9 9 11 12 13 8 2 4 3 2 3 2 2 1 1 2 0 2 4 5 5 5 5 5 6 10 11 11 11 12 10 10 11 12 9 6 8 8 8 8 8 8 7 7 7 6 6 8 7 8 9 7 5 6 6 7 7 8 9
12 10 11 11 3 4 2 5 1 14 3 9 11 3 4 7 13 7 2 1 2 5 7 4 8 8 7 7 11 12 12 11 6 5 5 4 3 4 4 2 2 1 1 1 1 1 4 6 6 6 6 7 9 9 10 11 12 10 9 12 9 7 8 8 8 8 8 8 8 7 7 7 8 8 7 8 7 9 9 7 7 6 6 8 8 8
7 7 4 4 5 8 6 8 11 6 10 13 20 12 11 9 2 6 5 4 2 4 5 7 6 9 7 9 9 10 11 10 7 5 4 5 4 3 2 2 0 0 0 1 0 1 2 4 4 5 4 4 5 7 8 11 12 10 11 10 6 8 8 8 8 8 8 8 8 7 7 7 7 6 6 7 8 8 9 8 7 7 6 7 8 8
12 10 7 12 7 9 12 15 4 2 8 11 6 5 12 14 5 5 7 7 6 6 4 3 7 7 8 9 8 7 7 7 10 5 6 8 6 5 5 4 3 2 2 2 3 3 3 6 6 6 5 3 5 5 6 6 10 10 10 7 8 9 10 9 9 9 9 8 8 7 7 6 6 6 6 6 8 9 8 8 8 8 5 6 6 7
1 6 1 5 7 5 6 1 4 1 3 8 3 2 4 10 3 2 3 4 5 6 9 9 8 9 8 7 6 6 8 9 6 6 7 5 4 4 2 2 2 1 1 2 2 3 4 5 6 7 7 4 4 5 4 5 7 12 8 8 8 8 9 10 10 9 9 8 7 8 8 9 6 5 5 6 5 6 7 10 9 8 8 6 6 6
1 2 4 5 1 7 13 5 6 6 6 11 9 1 0 0 5 4 3 4 8 5 5 5 4 4 2 1 7 9 10 6 6 5 4 4 5 4 4 4 3 3 4 4 3 5 5 6 7 7 7 7 4 4 4 4 4 5 8 9 8 9 10 10 10 10 9 9 8 7 7 9 8 7 6 5 5 4 5 5 6 7 8 7 7 7
3 2 4 4 6 13 6 6 8 2 4 6 7 5 4 5 5 7 11 6 2 1 2 3 2 5 2 4 8 8 8 4 5 7 6 7 6 5 5 4 4 2 1 1 2 3 4 5 6 7 7 7 5 4 4 4 5 6 8 8 8 9 9 10 10 10 9 9 7 7 7 7 8 9 7 6 6 7 6 5 5 8 9 10 10 10
6 11 7 6 7 5 2 2 1 5 1 5 5 6 7 9 9 6 4 4 4 5 4 3 4 5 5 9 3 5 6 8 9 8 7 5 4 4 4 4 3 3 3 4 2 2 4 4 4 4 5 4 3 4 4 4 4 6 8 8 8 9 10 9 8 7 7 7 7 7 6 6 7 7 7 6 4 2 1 5 6 6 2 1 1 2
10 9 2 5 5 9 11 7 6 3 4 8 10 14 14 10 4 3 1 3 5 8 9 7 5 1 4 4 5 5 9 9 7 6 7 5 5 4 4 4 4 4 3 2 2 2 2 3 3 4 4 3 3 3 4 4 4 4 4 6 7 8 10 9 8 8 8 7 7 7 7 6 6 5 6 6 6 6 3 2 4 3 4 3 3 5
10 7 8 9 9 12 9 10 14 13 10 6 8 9 9 6 5 6 8 9 8 6 5 5 6 4 4 2 1 4 5 4 3 3 3 2 2 3 4 6 6 5 5 4 5 3 4 4 4 4 5 4 3 4 4 4 3 4 4 5 5 7 8 9 9 7 7 7 8 8 8 7 7 6 6 6 6 6 7 6 3 5 5 5 4 6
Wind_Direction
123 166 188 198 198 178 178 182 139 111 129 109 125 231 258 245 278 274 263 272 292 156 221 207 217 232 245 246 251 170 158 201 250 248 233 231 223 222 225 225 226 227 232 231 220 217 214 212 210 210 206 208 206 208 205 205 206 204 203 196 205 202 194 188 190 191 188 191 195 205 203 206 193 197 194 204 206 206 207 200 197 197 190 187 197 206
115 186 215 197 164 172 169 159 171 138 126 122 69 312 290 245 271 256 254 350 322 182 258 217 229 247 248 258 247 134 148 219 213 228 237 231 222 222 223 229 228 229 250 259 213 218 213 211 212 208 208 203 205 212 203 205 207 205 203 201 203 194 194 197 197 194 195 196 197 191 203 192 182 185 195 206 206 208 207 206 203 203 193 182 186 202
197 213 169 138 127 132 157 158 177 180 201 110 162 275 281 269 242 277 247 242 305 138 268 34 212 251 251 252 243 173 204 233 217 213 226 220 217 225 228 234 236 243 248 231 234 226 213 210 209 203 205 207 209 207 205 208 206 207 205 205 200 196 193 201 199 193 200 200 199 191 185 182 186 202 197 196 195 194 202 209 208 204 210 195 191 198
195 229 166 143 133 142 153 168 165 192 233 185 180 230 231 267 283 298 312 18 298 153 276 224 215 270 271 262 258 217 203 243 232 219 235 212 223 224 224 222 225 229 237 234 226 224 213 205 206 204 207 208 205 208 209 209 208 206 206 201 200 199 198 199 199 197 202 197 190 187 167 179 175 181 183 189 190 193 204 218 212 216 206 212 206 198
196 110 154 147 156 160 162 171 176 182 213 203 196 218 234 251 248 205 281 347 299 328 87 66 328 293 251 263 279 252 226 242 256 242 253 241 231 235 258 294 230 230 230 235 232 231 216 210 210 205 207 200 203 206 208 206 205 204 203 202 200 200 200 201 195 194 183 152 139 118 71 91 104 49 124 176 214 199 202 210 210 214 201 204 206 203
246 214 122 137 159 166 165 180 195 176 203 217 225 204 225 255 277 284 311 329 349 309 250 177 320 258 288 273 241 257 151 240 247 233 241 233 233 236 238 239 243 241 233 229 228 222 212 212 212 210 206 204 208 210 210 205 206 202 201 201 202 203 200 201 196 189 173 176 170 162 170 183 197 208 196 209 208 186 202 213 200 203 204 205 205 203
187 190 161 166 161 176 185 197 194 175 196 181 225 181 218 251 292 293 290 105 284 248 288 141 212 270 319 274 241 238 232 236 250 220 242 240 241 236 234 237 236 233 236 236 245 238 219 227 219 217 209 209 209 214 202 204 204 203 203 199 198 200 201 199 193 180 175 180 182 186 193 198 202 213 225 191 167 194 209 195 199 211 205 205 203 208
124 154 179 172 168 176 189 204 196 182 157 225 122 151 196 274 280 265 232 208 238 289 301 304 183 228 270 259 245 315 297 271 268 258 258 250 241 236 234 235 235 233 228 223 226 225 221 213 206 211 210 205 211 204 196 204 199 203 203 195 196 199 200 195 183 179 182 186 188 192 200 200 203 208 212 180 201 200 183 190 210 205 204 205 207 209
152 172 178 181 183 187 207 193 145 172 177 198 176 196 208 178 232 311 215 237 262 289 269 256 288 256 248 270 313 21 270 273 259 253 251 247 238 239 238 238 236 233 225 215 220 221 218 212 212 215 213 215 208 197 200 200 200 200 199 198 196 199 195 188 178 179 187 191 188 192 192 201 213 201 198 177 169 179 181 192 210 197 207 200 207 211
261 176 184 173 175 208 169 141 173 176 185 258 95 86 82 90 81 74 242 258 289 228 246 232 181 221 275 274 310 341 231 253 259 256 247 241 234 232 236 241 241 239 231 221 224 227 225 220 219 215 218 208 209 203 203 201 192 194 190 195 192 200 191 185 180 180 186 188 182 189 194 201 200 180 174 161 187 186 177 194 203 197 183 189 192 176
207 330 170 156 196 189 168 181 173 181 187 100 119 96 73 46 34 28 75 116 337 250 241 228 250 200 280 238 205 187 218 199 239 269 264 261 259 258 254 254 256 251 235 227 229 234 235 235 232 208 211 215 206 204 193 196 194 187 189 192 196 200 187 183 183 179 186 185 186 193 195 198 192 184 175 180 198 173 165 187 193 177 152 103 114 120
15 50 137 240 161 158 149 166 193 169 184 149 162 148 126 209 12 25 326 61 214 254 258 232 198 163 223 293 263 236 259 225 215 229 244 254 260 256 250 250 252 244 229 226 227 234 230 247 244 209 216 207 200 185 198 197 187 191 194 189 198 197 191 185 182 182 185 184 191 195 191 195 191 179 185 193 195 185 183 183 177 143 120 123 133 136
220 168 251 211 270 164 164 152 201 176 172 188 132 161 151 229 126 254 227 235 219 229 318 68 175 27 242 230 272 269 249 263 222 223 240 248 265 267 262 258 264 261 239 219 219 224 220 218 215 210 213 194 194 198 194 193 191 192 192 192 196 204 191 188 181 186 185 185 191 189 189 193 184 186 191 195 189 182 181 174 154 154 157 153 132 144
270 260 183 214 105 244 164 172 167 174 195 188 188 169 158 166 168 214 225 316 316 288 270 322 339 272 267 283 235 255 260 244 234 231 242 250 258 270 273 280 279 261 234 231 228 227 224 219 215 210 203 202 200 197 194 192 190 191 193 196 199 206 185 185 182 185 183 190 187 185 184 186 181 192 190 190 182 185 181 172 170 171 168 168 166 165
170 222 241 155 204 161 180 186 174 149 157 200 125 169 180 164 166 201 187 211 221 219 256 272 88 233 125 245 232 231 268 301 270 235 248 253 259 266 279 287 277 270 250 235 232 224 224 223 214 209 206 204 202 197 196 193 195 183 195 194 202 197 186 181 186 181 185 185 182 183 185 184 184 185 181 186 183 173 168 173 161 167 161 155 173 161
206 196 275 324 283 163 179 223 154 123 162 194 172 92 172 216 114 157 212 169 272 288 293 210 212 191 186 266 287 243 267 283 271 261 247 266 264 270 280 264 258 250 252 235 234 244 242 230 223 217 210 207 199 198 196 198 191 189 198 196 200 196 182 182 179 186 181 179 176 179 181 185 178 170 165 154 154 166 167 162 157 159 160 153 144 139
144 231 319 310 72 140 183 141 190 163 183 191 121 212 208 130 159 234 35 10 72 32 256 155 312 291 300 313 282 329 322 274 280 270 264 273 291 307 266 271 271 265 260 255 245 248 260 269 253 232 221 217 206 197 200 199 194 195 186 184 190 184 173 180 181 176 177 171 172 180 175 164 162 162 166 168 167 163 159 148 148 144 149 134 127 124
148 226 353 92 179 322 206 184 135 19 150 115 203 211 97 67 97 158 228 2 210 230 260 70 236 301 345 278 322 340 296 279 285 277 270 286 291 283 261 255 256 256 255 260 257 253 251 249 244 234 228 217 208 203 201 204 191 186 181 176 173 168 174 181 173 170 169 169 173 167 165 166 165 162 158 153 150 148 136 132 126 126 125 130 132 119
122 69 258 3 138 280 356 115 47 335 330 181 195 163 157 202 217 274 143 235 203 239 272 298 308 264 193 241 331 305 270 269 271 277 293 267 259 250 253 253 251 263 282 270 259 257 255 242 244 232 225 224 219 213 207 190 167 161 168 175 172 174 176 171 169 164 165 167 163 163 161 156 149 146 142 140 139 140 137 141 138 125 124 116 114 110
76 134 301 336 133 272 16 117 201 175 336 70 74 163 269 103 234 144 201 159 121 256 10 282 14 251 199 217 208 265 277 263 253 275 274 267 259 260 259 251 243 244 242 248 249 245 237 238 229 226 226 225 214 206 201 181 168 172 170 161 161 148 147 149 156 156 155 155 144 139 134 138 141 142 140 143 140 140 138 139 127 122 126 130 114 113
179 119 172 293 290 79 193 203 209 153 159 112 124 195 200 194 283 110 103 185 205 206 206 251 295 272 250 213 193 217 226 249 273 254 263 265 256 246 245 243 243 240 240 237 235 234 236 238 244 233 233 234 224 188 170 174 183 179 166 167 162 158 160 163 160 154 151 144 142 138 139 138 134 130 125 123 128 127 129 128 127 128 133 120 121 127
108 120 165 112 79 220 240 236 186 184 188 179 170 194 182 158 192 184 238 46 93 201 242 231 264 253 268 183 208 224 239 271 250 248 274 279 278 281 274 261 239 250 245 247 248 238 237 241 241 218 103 115 144 164 177 182 162 167 177 174 163 157 165 158 158 154 146 145 141 139 136 132 126 125 120 120 124 125 130 134 130 132 130 123 137 133
143 128 107 167 206 200 215 38 249 102 53 190 173 211 177 172 123 194 219 247 2 257 106 178 306 257 222 204 213 231 253 256 259 238 270 273 277 275 266 257 251 234 258 247 241 246 241 226 209 187 172 169 179 178 174 170 178 177 170 162 167 161 165 160 151 144 142 138 135 132 128 126 127 125 127 125 129 129 131 129 129 138 126 125 129 114
92 107 114 312 319 314 303 325 41 18 54 289 299 77 130 193 185 177 163 188 182 213 221 263 254 273 166 186 216 239 259 274 269 238 253 274 279 287 274 271 262 263 265 261 219 233 243 230 149 134 150 153 145 164 176 170 162 159 165 166 157 159 151 149 143 139 135 130 125 128 127 127 130 131 135 133 137 131 132 132 130 126 119 127 126 118
153 259 119 82 20 344 340 332 334 348 52 142 170 202 169 8 39 122 93 94 245 206 183 164 249 273 275 355 252 227 286 284 269 254 210 261 286 285 290 285 281 265 242 213 203 186 172 186 190 200 190 184 186 179 171 164 171 167 162 159 158 147 147 136 135 130 129 131 129 132 132 135 141 140 138 134 135 132 132 130 126 123 127 125 120 124
184 181 147 159 174 182 197 208 214 206 181 210 205 189 189 188 167 164 217 204 239 216 170 217 247 252 284 325 327 294 326 304 283 266 251 224 258 296 307 299 277 245 229 214 204 186 200 203 209 203 207 202 199 185 177 171 161 160 156 167 155 144 139 139 130 129 131 134 138 142 142 145 143 142 139 137 135 136 134 130 129 129 127 133 132 133
174 159 192 196 189 197 206 215 40 102 81 190 218 179 220 207 204 205 176 205 226 206 194 235 241 340 305 320 326 299 269 254 283 308 311 308 296 267 252 262 245 227 227 218 215 217 187 198 208 206 205 205 192 190 180 167 167 166 161 155 153 148 140 141 133 135 138 144 142 145 148 148 147 141 140 139 135 129 129 131 134 134 138 138 135 136
111 183 210 207 209 214 149 167 188 147 184 204 159 200 193 172 177 190 195 228 109 97 246 235 85 247 235 263 271 279 296 297 278 242 283 299 285 268 263 271 272 259 260 248 231 213 212 215 212 210 210 200 198 189 183 179 171 166 163 158 149 143 142 146 142 144 143 146 145 147 148 143 139 136 133 128 127 129 129 130 133 133 132 133 133 137
159 205 201 152 232 192 179 161 163 168 185 176 181 191 191 196 184 205 225 225 140 210 243 147 195 231 225 202 233 246 247 264 275 299 210 255 274 290 288 272 260 244 245 237 232 223 214 214 210 213 214 211 185 187 187 178 172 155 143 147 151 151 155 148 143 145 146 145 148 148 140 131 128 124 126 129 128 131 136 136 133 131 132 131 127 127
152 219 159 173 191 195 216 185 186 169 188 171 189 197 201 192 207 213 223 220 211 240 250 229 241 240 185 213 216 231 240 252 282 282 269 243 232 234 240 247 243 242 230 228 224 218 213 210 203 204 200 202 196 192 189 184 183 176 165 165 160 156 158 147 150 145 145 145 143 136 135 131 128 132 132 134 138 142 141 137 136 134 132 130 129 130
147 247 135 109 141 235 231 185 222 199 155 189 220 216 208 207 211 214 217 220 224 251 254 261 268 266 234 200 227 245 262 31 328 292 263 263 274 208 209 226 233 236 236 236 230 220 212 206 203 200 201 203 198 197 188 186 180 172 168 166 167 166 165 155 148 150 151 149 142 139 135 134 136 135 138 137 132 138 137 136 136 133 130 131 134 131
157 220 32 115 164 251 202 161 192 69 16 220 223 219 220 213 218 224 223 216 207 232 238 245 256 253 178 222 217 230 311 260 258 257 258 261 254 225 226 238 236 239 239 235 229 215 206 208 205 205 207 203 200 193 187 183 179 174 182 172 173 166 156 153 154 154 154 147 147 149 149 147 145 144 145 146 147 141 133 129 132 135 136 137 131 126
162 126 149 146 165 222 305 108 112 88 39 318 252 227 211 204 209 212 223 218 216 223 233 231 244 199 212 184 190 239 218 237 246 254 259 254 240 219 226 234 241 244 241 237 223 214 211 208 209 211 210 205 201 197 197 178 170 185 178 172 167 146 159 160 157 151 148 154 155 157 153 151 152 149 152 154 144 135 134 137 136 141 145 141 137 125
147 162 174 176 181 194 350 130 103 105 199 231 248 140 166 198 195 204 226 222 229 202 229 234 256 230 162 136 193 212 213 230 228 246 239 260 295 215 232 236 239 241 244 241 229 220 220 215 216 214 210 207 201 191 174 179 180 170 153 149 144 157 159 153 154 153 154 156 160 157 154 154 151 152 153 145 136 135 138 144 151 149 141 133 128 120
160 140 150 162 111 138 169 105 128 201 228 242 92 164 177 189 187 207 223 218 221 224 245 262 260 233 217 207 214 229 238 264 293 289 274 234 214 221 228 232 238 238 238 233 229 227 219 214 213 209 205 209 193 174 161 170 166 147 141 149 150 157 153 159 154 157 160 161 159 156 157 156 155 150 148 141 136 139 145 148 146 145 151 143 138 136
152 147 137 67 112 64 89 162 174 228 248 337 277 347 250 173 206 196 268 269 264 231 228 240 244 247 244 245 246 228 224 255 308 270 252 241 201 217 223 236 239 233 234 226 216 222 214 208 205 201 209 182 159 173 173 169 150 148 153 149 159 159 162 158 159 160 160 163 165 166 165 159 154 150 146 144 143 148 152 155 158 150 148 128 112 103
157 130 151 175 188 162 197 178 225 337 332 277 255 169 152 160 151 173 225 247 227 221 217 234 242 235 245 250 236 248 248 2 297 275 251 226 219 215 219 231 234 234 229 235 216 223 216 213 212 203 146 159 174 165 172 153 151 149 150 161 165 161 162 163 169 172 172 169 169 168 167 164 156 152 151 151 152 156 158 156 151 144 144 127 130 129
171 161 188 146 232 130 130 208 334 271 253 248 177 213 163 170 163 161 186 260 229 227 217 228 239 239 246 245 237 229 96 285 281 261 253 230 214 222 228 234 243 242 237 239 232 230 203 196 175 166 169 165 172 172 156 159 159 157 160 167 165 167 171 176 180 175 173 174 172 168 166 164 158 153 154 158 162 159 155 145 135 144 158 142 142 131
25 62 153 171 150 90 141 169 207 211 240 115 163 170 175 140 122 113 73 259 246 190 198 201 230 227 228 231 229 122 137 229 249 258 257 206 225 221 226 229 232 239 242 223 208 211 200 189 176 167 160 165 176 180 166 161 159 160 171 171 172 173 175 185 180 177 178 174 168 163 160 157 155 155 156 160 160 156 153 154 149 141 129 127 120 124
101 46 90 79 167 190 167 166 228 215 250 216 185 191 169 144 114 88 208 265 196 198 198 192 213 221 228 233 137 156 184 236 255 266 279 208 224 239 226 242 247 251 253 241 251 213 183 155 133 157 173 186 189 159 161 157 162 169 170 172 168 178 188 189 182 170 156 150 153 152 152 155 154 156 158 156 147 146 143 133 129 138 133 125 126 128
138 203 157 200 186 180 176 229 346 286 256 236 209 161 166 152 118 138 210 223 215 228 254 168 215 226 222 183 148 192 224 218 239 238 278 307 275 270 287 341 287 284 243 216 213 144 155 175 178 185 189 176 149 155 159 161 160 173 173 169 175 194 188 164 144 146 146 145 145 149 149 148 155 153 150 148 147 137 132 138 137 135 134 133 130 122
324 93 315 57 157 179 196 199 234 260 231 172 304 156 179 107 173 209 219 195 155 203 214 198 205 232 202 191 193 212 233 233 246 318 305 301 264 300 322 326 354 26 19 36 166 160 155 163 163 143 140 153 155 157 161 162 169 168 167 173 192 182 138 139 144 141 142 146 146 143 143 143 138 139 140 137 136 135 129 118 123 132 136 136 136 132
175 159 190 188 170 57 85 204 10 250 230 135 121 105 291 172 220 182 159 39 173 176 181 187 195 239 173 216 218 225 242 260 254 251 259 280 273 254 260 262 255 213 161 80 153 217 154 158 165 165 157 150 155 160 164 164 166 167 166 185 181 141 139 137 137 138 138 137 139 142 142 142 144 143 142 143 143 136 134 135 131 135 139 138 135 135
179 162 199 195 173 156 162 189 213 203 146 170 142 180 203 216 151 147 145 203 224 178 178 191 224 220 197 200 217 234 239 251 278 245 266 273 251 258 245 248 252 62 71 11 87 157 137 127 119 115 110 129 143 157 164 170 169 169 175 178 128 131 127 130 133 132 134 137 138 137 138 140 138 137 142 144 139 133 136 140 140 140 148 149 146 146
212 196 169 168 201 161 199 215 202 222 158 182 171 173 192 207 182 179 169 191 188 247 186 157 225 238 210 211 223 224 252 237 239 218 199 234 217 212 212 214 193 183 174 147 143 125 127 142 138 123 115 127 144 152 162 169 164 160 170 152 139 142 142 138 137 137 140 142 143 140 137 132 136 141 143 150 147 144 145 143 150 144 156 151 155 156
278 189 156 124 228 267 309 154 103 87 175 212 267 211 220 209 153 98 163 219 252 215 172 197 214 224 224 203 202 242 217 241 229 226 226 242 215 219 184 157 155 135 113 103 103 107 116 115 122 135 137 133 147 149 160 159 161 168 164 134 142 139 138 138 139 141 144 143 144 145 144 136 131 133 140 146 152 155 159 158 161 157 157 161 161 162
267 124 140 178 238 129 241 146 142 185 199 200 215 196 310 170 211 193 188 207 237 211 214 263 277 288 267 153 210 232 245 232 231 239 219 234 228 209 194 192 188 176 167 161 166 131 125 134 137 145 150 151 162 150 148 144 139 136 129 147 140 139 140 143 145 144 148 151 147 144 148 147 148 146 144 143 137 138 152 160 157 156 161 166 164 162
266 203 147 205 151 187 240 163 179 192 188 218 209 191 242 249 244 221 214 222 164 112 182 248 225 258 186 228 223 222 252 216 200 226 214 217 212 195 194 187 175 148 148 124 134 128 125 146 155 160 160 162 158 141 127 122 116 125 133 133 140 139 141 147 156 156 157 153 151 153 157 154 153 153 153 159 159 157 158 170 172 171 176 178 175 163
150 134 213 167 177 275 35 346 63 95 110 249 237 244 232 220 216 233 243 256 239 256 242 220 181 214 189 238 211 202 225 231 215 210 207 202 197 195 191 167 155 150 134 140 153 150 163 163 156 158 153 139 126 118 113 106 112 133 140 144 145 149 147 149 145 142 143 148 148 155 158 156 162 163 155 151 139 101 109 165 178 173 141 8 36 198
112 185 192 95 212 234 217 197 158 150 243 240 225 217 223 229 203 230 148 224 225 230 234 229 243 255 232 239 220 208 213 227 211 194 207 203 193 167 149 143 140 131 128 115 104 108 94 101 127 137 128 105 95 99 104 104 108 120 126 135 145 149 150 148 146 147 158 160 161 159 159 161 161 154 152 152 151 138 95 83 139 147 152 170 185 152
169 179 145 182 193 230 211 178 189 205 228 221 198 223 227 216 183 209 214 219 228 235 219 201 236 268 261 273 245 210 244 253 232 157 146 126 137 141 148 149 152 156 164 155 139 139 136 133 126 121 118 130 124 120 116 114 117 121 132 145 156 159 155 152 153 159 161 168 178 176 169 162 159 162 155 156 154 152 142 126 116 130 133 144 149 155